Weather Roundup
Issued by NWS

Home | Current Version | Previous Version | Graphics & Text | Print | Product List | Glossary Off
Versions: 1 2 3 4 5 6 7 8 9 10 11 12 13 14 15 16 17 18 19 20 21 22 23 24 25 26 27 28 29 30 31 32 33 34 35 36 37 38 39 40 41 42 43 44 45 46 47 48 49 50

000
NZUS93 KARX 041010
HRRWXR

CURRENT HOURLY OBSERVATIONS ACROSS
MUCH OF THE UPPER MISSISSIPPI VALLEY
NATIONAL WEATHER SERVICE LA CROSSE WI
500 AM CDT SAT JUL 04 2015


...SOUTHEAST MINNESOTA...


CITY           SKY/WX    TMP DP  RH WIND       PRES   REMARKS
ROCHESTER      CLEAR     60  54  80 SW9       29.98R
ROCHESTER/MAYO PTSUNNY   63  55  75 SW6       29.97R
WINONA         MOCLDY    59  59 100 CALM      29.95R
AUSTIN         CLEAR     57  55  94 CALM      29.97S
ALBERT LEA     CLEAR     61  57  88 CALM      29.97S
DODGE CENTER   CLEAR     59  55  88 SW6       29.97R
PRESTON        CLEAR     59  53  78 SW5       29.98R
OWATONNA       CLEAR     61  55  82 CALM      29.97R
FARIBAULT      CLEAR     61  57  88 S3        29.96R
$$

...ELSEWHERE IN MINNESOTA...


CITY           SKY/WX    TMP DP  RH WIND       PRES   REMARKS
MINNEAPOLIS    MOCLDY    66  60  81 CALM      29.94R
INTNL FALLS    CLEAR     46  45  96 CALM      29.94R
DULUTH         CLEAR     60  54  80 E3        29.95S
RED WING       CLEAR     59  57  94 CALM      29.93S
REDWOOD FALLS  CLEAR     63  61  93 S5        29.93F FOG
MANKATO        CLEAR     63  57  82 SW6       29.95S
WORTHINGTON    CLEAR     64  54  68 SW8       29.99R
FAIRMONT       CLEAR     63  54  72 W5        29.97R
$$

...SOUTHWEST WISCONSIN...


CITY           SKY/WX    TMP DP  RH WIND       PRES   REMARKS
LA CROSSE      CLOUDY    63  61  93 SE3       29.95R
PRAIRIE DU CHI CLEAR     57  55  94 CALM      29.97S
BOSCOBEL       MOCLDY    57  55  93 CALM      29.97R FOG
LONE ROCK      MOCLDY    54  52  93 CALM      29.97S FOG
PLATTEVILLE    CLEAR     59  55  87 CALM      29.98S
FORT MC COY    CLOUDY    55  53  94 CALM      29.96R
CAMP DOUGLAS   FOG       54  54 100 E1        29.95R VSB 3/4
VIROQUA        FAIR      59  59 100 SW5       29.97R
WIS DELLS      CLEAR     57  55  91 SW5       29.96R
$$

...ELSEWHERE IN WISCONSIN...


CITY           SKY/WX    TMP DP  RH WIND       PRES   REMARKS
MILWAUKEE      PTCLDY    60  54  80 SW3       29.95S
MADISON        CLEAR     56  54  93 CALM      29.96R FOG
GREEN BAY      MOCLDY    61  58  90 CALM      29.92R
EAU CLAIRE     CLEAR     61  56  83 CALM      29.93R
BLACK RVR FLS  PTSUNNY   60  60 100 CALM      29.95R
MEDFORD        CLEAR     53  53 100 CALM      29.95R FOG
WAUSAU         CLEAR     58  56  93 CALM      29.93R
WIS RAPIDS     MOCLDY    59  56  89 CALM      29.96R
MARSHFIELD     CLEAR     59  55  87 SW5       29.95R
RICE LAKE      FOG       57  56  97 CALM      29.95S VSB<1/4
$$

...NORTHEAST IOWA...


CITY           SKY/WX    TMP DP  RH WIND       PRES   REMARKS
DECORAH          N/A    N/A N/A N/A MISG        N/A
MASON CITY     CLEAR     59  55  87 W5        29.99R
CHARLES CITY   CLEAR     57  57 100 S5        29.98S
OELWEIN          N/A    N/A N/A N/A S3        29.99R
$$

...ELSEWHERE IN IOWA...


CITY           SKY/WX    TMP DP  RH WIND       PRES   REMARKS
DES MOINES     PTCLDY    62  55  77 CALM      29.98S
IOWA CITY      CLEAR     57  55  93 CALM      29.98S
FORT DODGE     CLEAR     55  52  88 CALM      29.97F
$$

...NORTHERN ILLINOIS...


CITY           SKY/WX    TMP DP  RH WIND       PRES   REMARKS
CHICAGO-OHARE  CLEAR     60  54  80 W6        29.95S
CHICAGO-MIDWAY CLEAR     64  55  72 CALM      29.96S
MOLINE         CLEAR     57  54  89 CALM      29.97S FOG
ROCKFORD       CLEAR     58  54  86 S3        29.98S
PEORIA         CLEAR     62  57  83 NE3       29.97S
$$

NOTE: "FAIR" INDICATES FEW OR NO CLOUDS BELOW 12,000 FEET WITH NO
SIGNIFICANT WEATHER AND/OR OBSTRUCTIONS TO VISIBILITY. WIND
SPEEDS ARE IN MILES-PER-HOUR.



USA.gov is the U.S. government's official web portal to all federal, state and local government web resources and services.